Le nostre stazioni meteo in Italia

Pubblicità
Il mio iltempo24.it
San Pietro Capofiume, Italia (16144): Temperatura & dewpoint: 14.01.2019 07:00:00 - 20.01.2019 07:00:00 (CET)San Pietro Capofiume, Italia (16144): velocità del vento: 14.01.2019 07:00:00 - 20.01.2019 07:00:00 (CET)San Pietro Capofiume, Italia (16144): direzione del vento: 14.01.2019 07:00:00 - 20.01.2019 07:00:00 (CET)San Pietro Capofiume, Italia (16144): reduced air pressure: 14.01.2019 07:00:00 - 20.01.2019 07:00:00 (CET)San Pietro Capofiume, Italia (16144): precipitazioni: 14.01.2019 07:00:00 - 20.01.2019 07:00:00 (CET)
Data & Tempo tt [°C] td [°C] ff [km/h] ff [kn] dd ppp [hPa] rr [mm]
20.01.2019 07:00:00 - - - - - - -
20.01.2019 06:00:00 1,3 0,1 2 1 O 1015,4 -
20.01.2019 05:00:00 1,1 -0,1 - - - 1015,4 0,0
20.01.2019 04:00:00 0,9 -0,3 3 2 O 1015,8 0,0
20.01.2019 03:00:00 0,8 -0,2 4 2 O 1016,0 0,0
20.01.2019 02:00:00 0,8 -0,2 - - - 1016,0 0,0
20.01.2019 01:00:00 0,7 -0,3 3 2 O 1016,1 0,0
20.01.2019 00:00:00 - - - - - - -
19.01.2019 23:00:00 0,1 -0,8 - - - 1016,8 -
19.01.2019 22:00:00 0,5 -0,5 4 2 O 1016,7 0,0
19.01.2019 21:00:00 1,8 0,5 1 1 N 1016,5 0,0
19.01.2019 20:00:00 3,4 1,6 6 3 O 1016,4 0,0
19.01.2019 19:00:00 3,9 1,9 5 3 NO 1016,3 0,0
19.01.2019 18:00:00 4,5 2,4 - - - 1016,2 0,0
19.01.2019 17:00:00 5,4 1,9 - - - 1016,3 0,0
19.01.2019 16:00:00 6,1 1,8 4 2 NNE 1016,3 0,0
19.01.2019 15:00:00 6,6 1,9 8 4 NNE 1016,4 0,0
19.01.2019 14:00:00 6,6 1,9 9 5 NE 1016,7 0,0
19.01.2019 13:00:00 6,2 1,9 9 5 N 1017,1 0,0
19.01.2019 12:00:00 5,6 1,7 7 4 NNO 1017,7 0,0
19.01.2019 11:00:00 5,0 1,3 8 4 NNO 1018,2 0,0
19.01.2019 10:00:00 4,0 0,7 7 4 N 1017,6 0,0
19.01.2019 09:00:00 3,4 0,6 11 6 NNO 1017,4 0,0
19.01.2019 08:00:00 3,2 0,4 - - - 1017,1 0,0
19.01.2019 07:00:00 3,2 0,8 8 4 NNO 1016,8 0,0
19.01.2019 06:00:00 3,3 0,9 6 3 N 1017,0 0,6
19.01.2019 05:00:00 3,6 1,6 7 4 N 1017,0 1,8
19.01.2019 04:00:00 4,0 2,0 9 5 NNE 1017,1 0,0
19.01.2019 03:00:00 4,6 2,1 11 6 NNE 1017,2 0,4
19.01.2019 02:00:00 4,7 2,6 18 10 NE 1017,1 0,6
19.01.2019 01:00:00 5,3 3,6 20 11 NE 1017,0 1,6
19.01.2019 00:00:00 5,9 4,2 18 10 ENE 1016,9 0,4
18.01.2019 23:00:00 - - - - - - -
18.01.2019 22:00:00 6,1 4,4 13 7 NE 1016,2 0,0
18.01.2019 21:00:00 5,5 4,0 8 5 NE 1015,9 0,0
18.01.2019 20:00:00 4,8 3,3 4 2 N 1015,7 0,0
18.01.2019 19:00:00 5,4 3,6 6 3 N 1015,5 0,0
18.01.2019 18:00:00 5,8 4,0 4 2 ONO 1014,9 0,0
18.01.2019 17:00:00 6,8 5,0 4 2 N 1014,7 0,0
18.01.2019 16:00:00 7,2 5,0 2 1 NE 1014,7 0,0
18.01.2019 15:00:00 6,7 4,7 4 2 NE 1014,2 0,0
18.01.2019 14:00:00 6,8 4,6 7 4 NE 1013,7 0,0
18.01.2019 13:00:00 5,8 4,0 9 5 NE 1013,8 0,0
18.01.2019 12:00:00 6,5 4,5 11 6 NE 1013,5 0,0
18.01.2019 11:00:00 5,7 4,3 7 4 N 1013,3 0,0
18.01.2019 10:00:00 5,4 3,9 9 5 NO 1012,8 0,0
18.01.2019 09:00:00 5,4 4,0 9 5 ONO 1011,7 0,0
18.01.2019 08:00:00 4,2 2,9 6 4 O 1011,2 0,0
18.01.2019 07:00:00 4,3 3,1 5 3 NO 1010,6 0,0
18.01.2019 06:00:00 4,6 3,4 10 5 SO 1010,1 0,6
18.01.2019 05:00:00 4,7 3,5 10 6 O 1010,3 0,0
18.01.2019 04:00:00 4,4 3,1 10 6 O 1010,3 0,0
18.01.2019 03:00:00 4,2 2,5 11 6 ONO 1010,5 0,0
18.01.2019 02:00:00 4,2 2,4 13 7 O 1010,3 0,0
18.01.2019 01:00:00 4,2 2,2 11 6 ONO 1010,2 0,0
18.01.2019 00:00:00 4,2 2,2 4 2 O 1010,6 0,0
17.01.2019 23:00:00 4,6 2,5 7 4 ONO 1010,9 0,0
17.01.2019 22:00:00 4,9 2,4 10 5 O 1011,3 0,0
17.01.2019 21:00:00 5,4 2,7 2 1 OSO 1011,1 0,0
17.01.2019 20:00:00 5,8 3,0 6 4 O 1011,4 0,0
17.01.2019 19:00:00 6,3 3,3 6 4 OSO 1011,6 0,0
17.01.2019 18:00:00 6,9 3,5 13 7 OSO 1011,7 0,0
17.01.2019 17:00:00 10,1 5,5 12 7 SO 1011,6 0,0
17.01.2019 16:00:00 13,0 5,4 22 12 SSE 1011,7 0,0
17.01.2019 15:00:00 13,7 5,6 23 12 S 1012,1 0,0
17.01.2019 14:00:00 14,5 5,6 24 13 S 1012,5 0,0
17.01.2019 13:00:00 13,3 5,5 18 10 S 1013,4 0,0
17.01.2019 12:00:00 13,6 6,0 12 6 SSE 1014,5 0,0
17.01.2019 11:00:00 10,5 5,7 5 3 SSO 1015,7 0,0
17.01.2019 10:00:00 6,1 3,8 - - - 1015,8 -
17.01.2019 09:00:00 5,0 3,0 6 3 ESE 1015,8 0,0
17.01.2019 08:00:00 3,1 1,5 8 5 NE 1015,8 0,0
17.01.2019 07:00:00 3,4 1,8 8 4 NE 1015,9 0,0
17.01.2019 06:00:00 4,4 2,1 - - - 1016,0 -
17.01.2019 05:00:00 7,9 4,7 11 6 SSE 1016,3 0,0
17.01.2019 04:00:00 5,1 2,8 12 7 SSE 1016,9 0,0
17.01.2019 03:00:00 3,0 0,6 4 2 N 1017,7 0,0
17.01.2019 02:00:00 2,6 0,5 5 3 ESE 1018,1 0,0
17.01.2019 01:00:00 1,6 -0,6 7 4 NNO 1018,4 0,0
17.01.2019 00:00:00 1,0 -1,1 - - - 1018,7 0,0
16.01.2019 23:00:00 1,2 -0,7 7 4 SSE 1019,1 0,0
16.01.2019 22:00:00 0,3 -1,6 3 2 SE 1019,3 0,0
16.01.2019 21:00:00 0,5 -1,9 2 1 SO 1019,0 0,0
16.01.2019 20:00:00 3,0 -0,5 4 2 S 1019,2 0,0
16.01.2019 19:00:00 4,9 -0,1 - - - 1019,2 -
16.01.2019 18:00:00 6,9 0,8 - - - 1019,0 0,0
16.01.2019 17:00:00 10,6 1,9 4 2 SSO 1018,8 0,0
16.01.2019 16:00:00 14,0 2,2 2 1 O 1018,9 0,0
16.01.2019 15:00:00 14,0 2,2 9 5 NNO 1018,9 0,0
16.01.2019 14:00:00 14,3 1,9 - - - 1019,1 -
16.01.2019 13:00:00 12,9 1,2 7 4 ONO 1019,7 0,0
16.01.2019 12:00:00 9,7 0,6 6 3 NNO 1020,4 0,0
16.01.2019 11:00:00 7,5 -0,2 4 2 NE 1021,2 0,0
16.01.2019 10:00:00 3,8 -2,4 4 2 ONO 1021,1 0,0
16.01.2019 09:00:00 -0,2 -3,6 1 0 SO 1020,8 0,0
16.01.2019 08:00:00 -3,7 -5,9 - - - 1020,4 -
16.01.2019 07:00:00 -3,7 -6,0 4 2 OSO 1020,4 0,0
16.01.2019 06:00:00 -4,1 -6,2 6 3 SO 1020,2 0,0
16.01.2019 05:00:00 -3,9 -6,4 4 2 ESE 1020,3 0,0
16.01.2019 04:00:00 -3,5 -5,8 0 0 E 1020,6 0,0
16.01.2019 03:00:00 -3,6 -6,1 - - - 1020,8 -
16.01.2019 02:00:00 -2,7 -5,2 7 4 NNE 1020,6 0,0
16.01.2019 01:00:00 -0,9 -4,9 0 0 NO 1020,4 0,0
16.01.2019 00:00:00 -0,7 -4,8 4 2 ONO 1020,4 0,0
15.01.2019 23:00:00 -0,8 -4,7 5 3 O 1020,5 0,0
15.01.2019 22:00:00 -1,1 -4,6 4 2 OSO 1020,3 0,0
15.01.2019 21:00:00 -1,0 -5,2 - - - 1020,0 0,0
15.01.2019 20:00:00 2,2 -3,7 3 1 S 1019,8 0,0
15.01.2019 19:00:00 4,2 -2,9 9 5 SE 1019,3 0,0
15.01.2019 18:00:00 6,0 -3,6 11 6 SE 1019,0 0,0
15.01.2019 17:00:00 9,5 -4,5 - - - 1018,5 0,0
15.01.2019 16:00:00 12,1 -3,7 1 1 NO 1018,4 0,0
15.01.2019 15:00:00 13,4 -5,2 11 6 O 1018,4 0,0
15.01.2019 14:00:00 13,3 -4,8 13 7 OSO 1018,5 0,0
15.01.2019 13:00:00 13,0 -4,6 12 6 O 1018,7 0,0
15.01.2019 12:00:00 11,9 -3,5 9 5 OSO 1019,2 0,0
15.01.2019 11:00:00 9,2 -1,5 6 3 OSO 1019,4 0,0
15.01.2019 10:00:00 5,3 -2,3 5 3 SSO 1018,9 0,0
15.01.2019 09:00:00 0,9 -3,8 7 4 SSO 1018,1 0,0
15.01.2019 08:00:00 -2,8 -6,3 7 4 SSO 1017,2 0,0
15.01.2019 07:00:00 -2,6 -6,2 7 4 SO 1016,9 0,0
15.01.2019 06:00:00 0,1 -5,5 5 3 SO 1016,3 0,0
15.01.2019 05:00:00 3,0 -5,2 7 4 OSO 1015,8 0,0
15.01.2019 04:00:00 0,8 -5,2 7 4 SSE 1015,5 0,0
15.01.2019 03:00:00 0,1 -5,1 4 2 O 1015,4 0,0
15.01.2019 02:00:00 0,3 -5,1 10 5 OSO 1014,6 0,0
15.01.2019 01:00:00 0,7 -4,3 8 4 SO 1013,9 0,0
15.01.2019 00:00:00 1,0 -4,0 9 5 SSO 1012,9 0,0
14.01.2019 23:00:00 1,1 -4,0 13 7 ENE 1011,9 0,0
14.01.2019 22:00:00 3,4 -3,6 17 9 ONO 1009,4 0,0
14.01.2019 21:00:00 3,7 -3,1 23 12 O 1008,4 0,0
14.01.2019 20:00:00 7,3 -3,0 23 12 ONO 1007,4 0,0
14.01.2019 19:00:00 6,5 -2,1 19 11 ONO 1006,4 0,0
14.01.2019 18:00:00 7,0 -1,4 16 9 ONO 1005,6 0,0
14.01.2019 17:00:00 8,3 1,0 16 9 ONO 1005,1 0,0
14.01.2019 16:00:00 13,1 1,4 21 12 ONO 1004,4 0,0
14.01.2019 15:00:00 13,8 3,3 21 11 ONO 1004,1 0,0
14.01.2019 14:00:00 13,0 2,8 23 12 ONO 1004,1 0,0
14.01.2019 13:00:00 - - - - - - -
14.01.2019 12:00:00 9,4 3,2 24 13 O 1004,7 0,0
14.01.2019 11:00:00 5,2 0,6 - - - 1005,5 0,0
14.01.2019 10:00:00 2,1 -0,7 - - - 1005,4 -
14.01.2019 09:00:00 -0,8 -2,4 8 4 OSO 1004,3 0,0
14.01.2019 08:00:00 -1,2 -2,6 6 4 NNE 1002,9 0,0
14.01.2019 07:00:00 -1,1 -2,7 7 4 NNE 1000,8 0,0

tt = Temperatura
td = dewpoint
ff = velocità del vento
dd = direzione del vento
ppp = reduced air pressure
rr = precipitazioni

Stazioni seguenti

WeatherPro
AMSI
MeteoEarth